Location: The Saddle
(36.8333°N, 80.3417°W)
Time: 09:21:06
(UTC-05:00)

S-56A Canister/Altair - Pass Details

Date: 16 December 2023
Orbit: 640 x 2488 km, 38.9° (Epoch: 25 February)

Event Time Altitude Azimuth Distance (km) Brightness Sun altitude
Rises 10:22:22 0° 271° (W) 4,110 11.0 24.1°
Reaches altitude 10° 10:25:39 10° 273° (W) 2,870 10.2 24.4°
Maximum altitude 10:32:10 71° 357° (N) 848 7.9 25.0°
Drops below altitude 10° 10:36:57 10° 83° (E) 2,130 10.1 25.4°
Sets 10:39:04 0° 85° (E) 2,974 10.8 25.6°
